Time,TemperatureF,DewpointF,PressureIn,WindDirection,WindDirectionDegrees,WindSpeedMPH,WindSpeedGustMPH,Humidity,HourlyPrecipIn,Conditions,Clouds,dailyrainin,SoftwareType,DateUTC
2013-04-24 00:01:00,70.0,20.0,29.80,North,0,0.0,0.0,15,0.00,,,0.00,,2013-04-24 07:01:00,
2013-04-24 00:21:00,70.0,23.0,29.80,North,0,1.0,2.0,17,0.00,,,0.00,,2013-04-24 07:21:00,
2013-04-24 00:31:00,70.0,20.0,29.80,North,0,2.0,3.0,15,0.00,,,0.00,,2013-04-24 07:31:00,
2013-04-24 01:01:00,71.0,21.0,29.80,North,0,2.0,3.0,15,0.00,,,0.00,,2013-04-24 08:01:00,
2013-04-24 01:21:00,71.0,21.0,29.80,North,0,2.0,3.0,15,0.00,,,0.00,,2013-04-24 08:21:00,
2013-04-24 01:32:00,71.0,21.0,29.79,North,0,2.0,3.0,15,0.00,,,0.00,,2013-04-24 08:32:00,
2013-04-24 01:42:00,71.0,21.0,29.79,North,0,2.0,3.0,15,0.00,,,0.00,,2013-04-24 08:42:00,
2013-04-24 01:52:00,71.0,21.0,29.79,North,0,1.0,3.0,15,0.00,,,0.00,,2013-04-24 08:52:00,
2013-04-24 02:01:00,70.0,20.0,29.79,North,0,0.0,0.0,15,0.00,,,0.00,,2013-04-24 09:01:00,
2013-04-24 02:11:00,70.0,20.0,29.79,North,0,0.0,0.0,15,0.00,,,0.00,,2013-04-24 09:11:00,
2013-04-24 02:21:00,70.0,19.0,29.79,North,0,2.0,3.0,14,0.00,,,0.00,,2013-04-24 09:21:00,
2013-04-24 02:32:00,71.0,18.0,29.79,NNW,338,0.0,0.0,13,0.00,,,0.00,,2013-04-24 09:32:00,
2013-04-24 03:02:00,70.0,23.0,29.78,NNW,338,0.0,0.0,17,0.00,,,0.00,,2013-04-24 10:02:00,
2013-04-24 03:22:00,69.0,22.0,29.79,NNW,338,1.0,2.0,17,0.00,,,0.00,,2013-04-24 10:22:00,
2013-04-24 03:32:00,69.0,24.0,29.78,NNW,338,0.0,0.0,18,0.00,,,0.00,,2013-04-24 10:32:00,
2013-04-24 03:42:00,69.0,24.0,29.78,NNW,338,0.0,0.0,18,0.00,,,0.00,,2013-04-24 10:42:00,
2013-04-24 03:52:00,68.0,22.0,29.79,NNW,338,0.0,0.0,17,0.00,,,0.00,,2013-04-24 10:52:00,
2013-04-24 04:02:00,67.0,23.0,29.79,NW,315,0.0,0.0,19,0.00,,,0.00,,2013-04-24 11:02:00,
2013-04-24 04:11:00,67.0,34.0,29.80,NW,315,0.0,0.0,29,0.00,,,0.00,,2013-04-24 11:11:00,
2013-04-24 04:21:00,67.0,34.0,29.80,NW,315,0.0,0.0,29,0.00,,,0.00,,2013-04-24 11:21:00,
2013-04-24 04:31:00,67.0,41.0,29.79,West,270,0.0,0.0,38,0.00,,,0.00,,2013-04-24 11:31:00,
2013-04-24 04:52:00,67.0,49.0,29.79,South,180,2.0,3.0,52,0.00,,,0.00,,2013-04-24 11:52:00,
2013-04-24 05:01:00,67.0,53.0,29.80,SSE,158,2.0,3.0,60,0.00,,,0.00,,2013-04-24 12:01:00,
2013-04-24 05:11:00,67.0,54.0,29.80,South,180,1.0,3.0,62,0.00,,,0.00,,2013-04-24 12:11:00,
2013-04-24 05:22:00,67.0,54.0,29.80,South,180,1.0,3.0,62,0.00,,,0.00,,2013-04-24 12:22:00,
2013-04-24 05:31:00,66.0,54.0,29.80,SSE,158,0.0,1.0,65,0.00,,,0.00,,2013-04-24 12:31:00,
2013-04-24 05:52:00,66.0,55.0,29.80,SSE,158,0.0,1.0,68,0.00,,,0.00,,2013-04-24 12:52:00,
2013-04-24 06:01:00,66.0,55.0,29.80,SE,135,0.0,0.0,68,0.00,,,0.00,,2013-04-24 13:01:00,
2013-04-24 06:21:00,66.0,56.0,29.81,SE,135,0.0,1.0,69,0.00,,,0.00,,2013-04-24 13:21:00,
2013-04-24 06:31:00,66.0,55.0,29.81,ESE,113,0.0,0.0,68,0.00,,,0.00,,2013-04-24 13:31:00,
2013-04-24 06:52:00,66.0,55.0,29.82,ESE,113,0.0,0.0,68,0.00,,,0.00,,2013-04-24 13:52:00,
2013-04-24 07:01:00,67.0,55.0,29.82,ESE,113,0.0,0.0,66,0.00,,,0.00,,2013-04-24 14:01:00,
2013-04-24 07:31:00,69.0,56.0,29.83,ESE,113,0.0,0.0,63,0.00,,,0.00,,2013-04-24 14:31:00,
2013-04-24 08:01:00,70.0,56.0,29.84,ESE,113,0.0,0.0,61,0.00,,,0.00,,2013-04-24 15:01:00,
2013-04-24 08:32:00,70.0,57.0,29.85,ESE,113,0.0,0.0,64,0.00,,,0.00,,2013-04-24 15:32:00,
2013-04-24 09:03:00,71.0,55.0,29.86,SSE,158,0.0,0.0,58,0.00,,,0.00,,2013-04-24 16:03:00,
2013-04-24 09:12:00,71.0,55.0,29.86,SSE,158,0.0,0.0,58,0.00,,,0.00,,2013-04-24 16:12:00,
2013-04-24 09:23:00,71.0,52.0,29.86,SE,135,0.0,0.0,52,0.00,,,0.00,,2013-04-24 16:23:00,
2013-04-24 09:32:00,72.0,54.0,29.85,ESE,113,0.0,0.0,53,0.00,,,0.00,,2013-04-24 16:32:00,
2013-04-24 09:42:00,73.0,54.0,29.85,ESE,113,0.0,0.0,51,0.00,,,0.00,,2013-04-24 16:42:00,
2013-04-24 09:52:00,73.0,54.0,29.85,ESE,113,0.0,0.0,51,0.00,,,0.00,,2013-04-24 16:52:00,
2013-04-24 10:02:00,74.0,54.0,29.85,East,90,0.0,0.0,50,0.00,,,0.00,,2013-04-24 17:02:00,
2013-04-24 10:12:00,74.0,54.0,29.85,East,90,0.0,0.0,50,0.00,,,0.00,,2013-04-24 17:12:00,
2013-04-24 10:22:00,76.0,55.0,29.85,East,90,0.0,0.0,48,0.00,,,0.00,,2013-04-24 17:22:00,
2013-04-24 10:32:00,77.0,53.0,29.86,East,90,0.0,0.0,43,0.00,,,0.00,,2013-04-24 17:32:00,
2013-04-24 10:51:00,78.0,51.0,29.85,ENE,68,2.0,3.0,39,0.00,,,0.00,,2013-04-24 17:51:00,
2013-04-24 11:01:00,79.0,50.0,29.85,ENE,68,5.0,7.0,37,0.00,,,0.00,,2013-04-24 18:01:00,
2013-04-24 11:12:00,79.0,50.0,29.85,ENE,68,5.0,7.0,37,0.00,,,0.00,,2013-04-24 18:12:00,
2013-04-24 11:21:00,79.0,50.0,29.85,ENE,68,0.0,2.0,36,0.00,,,0.00,,2013-04-24 18:21:00,
2013-04-24 11:32:00,80.0,49.0,29.85,NE,45,2.0,3.0,34,0.00,,,0.00,,2013-04-24 18:32:00,
2013-04-24 11:42:00,80.0,49.0,29.85,NE,45,2.0,3.0,34,0.00,,,0.00,,2013-04-24 18:42:00,
2013-04-24 11:52:00,81.0,48.0,29.85,NNE,23,1.0,2.0,32,0.00,,,0.00,,2013-04-24 18:52:00,
2013-04-24 12:01:00,81.0,47.0,29.85,NNE,23,1.0,3.0,31,0.00,,,0.00,,2013-04-24 19:01:00,
2013-04-24 12:11:00,81.0,47.0,29.85,NNE,23,1.0,3.0,31,0.00,,,0.00,,2013-04-24 19:11:00,
2013-04-24 12:21:00,82.0,47.0,29.84,NNE,23,2.0,3.0,29,0.00,,,0.00,,2013-04-24 19:21:00,
2013-04-24 12:31:00,83.0,46.0,29.83,NE,45,3.0,6.0,27,0.00,,,0.00,,2013-04-24 19:31:00,
2013-04-24 12:41:00,83.0,46.0,29.83,NE,45,3.0,6.0,27,0.00,,,0.00,,2013-04-24 19:41:00,
2013-04-24 12:52:00,84.0,46.0,29.83,East,90,3.0,3.0,27,0.00,,,0.00,,2013-04-24 19:52:00,
2013-04-24 13:01:00,85.0,45.0,29.83,East,90,2.0,7.0,25,0.00,,,0.00,,2013-04-24 20:01:00,
2013-04-24 13:11:00,85.0,45.0,29.83,East,90,2.0,7.0,25,0.00,,,0.00,,2013-04-24 20:11:00,
2013-04-24 13:21:00,86.0,45.0,29.83,ESE,113,1.0,2.0,24,0.00,,,0.00,,2013-04-24 20:21:00,
2013-04-24 13:32:00,87.0,46.0,29.82,SSE,158,2.0,3.0,24,0.00,,,0.00,,2013-04-24 20:32:00,
2013-04-24 13:42:00,87.0,46.0,29.82,SSE,158,2.0,3.0,24,0.00,,,0.00,,2013-04-24 20:42:00,
2013-04-24 13:52:00,87.0,45.0,29.80,SE,135,2.0,3.0,23,0.00,,,0.00,,2013-04-24 20:52:00,
2013-04-24 14:01:00,89.0,44.0,29.80,SSE,158,2.0,3.0,21,0.00,,,0.00,,2013-04-24 21:01:00,
2013-04-24 14:21:00,89.0,44.0,29.79,SSW,203,3.0,3.0,21,0.00,,,0.00,,2013-04-24 21:21:00,
2013-04-24 14:32:00,89.0,43.0,29.78,SSE,158,7.0,9.0,20,0.00,,,0.00,,2013-04-24 21:32:00,
2013-04-24 14:42:00,89.0,43.0,29.78,SSE,158,7.0,9.0,20,0.00,,,0.00,,2013-04-24 21:42:00,
2013-04-24 14:52:00,90.0,43.0,29.77,ESE,113,5.0,6.0,20,0.00,,,0.00,,2013-04-24 21:52:00,
2013-04-24 15:02:00,90.0,43.0,29.75,SSE,158,3.0,6.0,20,0.00,,,0.00,,2013-04-24 22:02:00,
2013-04-24 15:22:00,91.0,43.0,29.75,SE,135,6.0,9.0,19,0.00,,,0.00,,2013-04-24 22:22:00,
2013-04-24 15:32:00,90.0,41.0,29.75,ESE,113,8.0,12.0,18,0.00,,,0.00,,2013-04-24 22:32:00,
2013-04-24 15:42:00,90.0,41.0,29.75,ESE,113,8.0,12.0,18,0.00,,,0.00,,2013-04-24 22:42:00,
2013-04-24 15:52:00,90.0,42.0,29.74,ESE,113,6.0,9.0,19,0.00,,,0.00,,2013-04-24 22:52:00,
2013-04-24 16:02:00,91.0,42.0,29.73,SE,135,7.0,12.0,18,0.00,,,0.00,,2013-04-24 23:02:00,
2013-04-24 16:21:00,90.0,42.0,29.73,SSE,158,8.0,13.0,19,0.00,,,0.00,,2013-04-24 23:21:00,
2013-04-24 16:32:00,90.0,41.0,29.72,ESE,113,6.0,9.0,18,0.00,,,0.00,,2013-04-24 23:32:00,
2013-04-24 16:52:00,90.0,39.0,29.73,SSE,158,9.0,14.0,17,0.00,,,0.00,,2013-04-24 23:52:00,
2013-04-24 17:01:00,90.0,39.0,29.72,South,180,9.0,14.0,17,0.00,,,0.00,,2013-04-25 00:01:00,
2013-04-24 17:12:00,90.0,39.0,29.72,South,180,9.0,14.0,17,0.00,,,0.00,,2013-04-25 00:12:00,
2013-04-24 17:22:00,90.0,41.0,29.72,SE,135,8.0,15.0,18,0.00,,,0.00,,2013-04-25 00:22:00,
2013-04-24 17:32:00,90.0,41.0,29.72,SE,135,3.0,6.0,18,0.00,,,0.00,,2013-04-25 00:32:00,
2013-04-24 17:41:00,90.0,41.0,29.72,SE,135,3.0,6.0,18,0.00,,,0.00,,2013-04-25 00:41:00,
2013-04-24 17:52:00,89.0,37.0,29.72,SSE,158,7.0,12.0,16,0.00,,,0.00,,2013-04-25 00:52:00,
2013-04-24 18:01:00,88.0,35.0,29.72,South,180,7.0,14.0,15,0.00,,,0.00,,2013-04-25 01:01:00,
2013-04-24 18:11:00,88.0,35.0,29.72,South,180,7.0,14.0,15,0.00,,,0.00,,2013-04-25 01:11:00,
2013-04-24 18:22:00,88.0,35.0,29.72,SSE,158,5.0,7.0,15,0.00,,,0.00,,2013-04-25 01:22:00,
2013-04-24 18:32:00,87.0,34.0,29.72,SSE,158,3.0,6.0,15,0.00,,,0.00,,2013-04-25 01:32:00,
2013-04-24 18:41:00,87.0,34.0,29.72,SSE,158,3.0,6.0,15,0.00,,,0.00,,2013-04-25 01:41:00,
2013-04-24 18:52:00,87.0,35.0,29.72,SSE,158,3.0,5.0,16,0.00,,,0.00,,2013-04-25 01:52:00,
2013-04-24 19:01:00,86.0,33.0,29.72,SE,135,5.0,12.0,15,0.00,,,0.00,,2013-04-25 02:01:00,
2013-04-24 19:11:00,86.0,33.0,29.72,SE,135,5.0,12.0,15,0.00,,,0.00,,2013-04-25 02:11:00,
2013-04-24 19:22:00,85.0,34.0,29.71,SE,135,3.0,6.0,16,0.00,,,0.00,,2013-04-25 02:22:00,
2013-04-24 19:32:00,84.0,33.0,29.71,SE,135,8.0,12.0,16,0.00,,,0.00,,2013-04-25 02:32:00,
2013-04-24 19:41:00,84.0,33.0,29.71,SE,135,8.0,12.0,16,0.00,,,0.00,,2013-04-25 02:41:00,
2013-04-24 19:51:00,84.0,33.0,29.71,SE,135,8.0,12.0,16,0.00,,,0.00,,2013-04-25 02:51:00,
2013-04-24 20:02:00,82.0,33.0,29.72,SE,135,5.0,10.0,17,0.00,,,0.00,,2013-04-25 03:02:00,
2013-04-24 20:11:00,81.0,32.0,29.73,SE,135,5.0,7.0,17,0.00,,,0.00,,2013-04-25 03:11:00,
2013-04-24 20:21:00,81.0,32.0,29.73,SE,135,5.0,7.0,17,0.00,,,0.00,,2013-04-25 03:21:00,
2013-04-24 20:32:00,81.0,32.0,29.74,SE,135,3.0,6.0,17,0.00,,,0.00,,2013-04-25 03:32:00,
2013-04-24 20:42:00,81.0,32.0,29.74,SE,135,3.0,6.0,17,0.00,,,0.00,,2013-04-25 03:42:00,
2013-04-24 20:52:00,80.0,34.0,29.75,ESE,113,5.0,7.0,19,0.00,,,0.00,,2013-04-25 03:52:00,
2013-04-24 21:02:00,79.0,34.0,29.76,SE,135,5.0,8.0,20,0.00,,,0.00,,2013-04-25 04:02:00,
2013-04-24 21:12:00,78.0,36.0,29.76,ESE,113,7.0,8.0,22,0.00,,,0.00,,2013-04-25 04:12:00,
2013-04-24 21:22:00,78.0,36.0,29.76,ESE,113,7.0,8.0,22,0.00,,,0.00,,2013-04-25 04:22:00,
2013-04-24 21:32:00,77.0,36.0,29.76,ESE,113,3.0,5.0,23,0.00,,,0.00,,2013-04-25 04:32:00,
2013-04-24 21:42:00,77.0,36.0,29.76,ESE,113,3.0,5.0,23,0.00,,,0.00,,2013-04-25 04:42:00,
2013-04-24 21:52:00,77.0,37.0,29.76,ESE,113,2.0,5.0,24,0.00,,,0.00,,2013-04-25 04:52:00,
2013-04-24 22:02:00,76.0,39.0,29.76,ESE,113,3.0,6.0,26,0.00,,,0.00,,2013-04-25 05:02:00,
2013-04-24 22:11:00,76.0,39.0,29.76,ESE,113,3.0,6.0,26,0.00,,,0.00,,2013-04-25 05:11:00,
2013-04-24 22:21:00,75.0,39.0,29.76,East,90,3.0,5.0,27,0.00,,,0.00,,2013-04-25 05:21:00,
2013-04-24 22:31:00,75.0,39.0,29.76,ESE,113,3.0,7.0,27,0.00,,,0.00,,2013-04-25 05:31:00,
2013-04-24 22:42:00,75.0,39.0,29.76,ESE,113,3.0,7.0,27,0.00,,,0.00,,2013-04-25 05:42:00,
2013-04-24 22:52:00,74.0,38.0,29.77,East,90,0.0,1.0,27,0.00,,,0.00,,2013-04-25 05:52:00,
2013-04-24 23:01:00,73.0,39.0,29.77,ENE,68,1.0,2.0,29,0.00,,,0.00,,2013-04-25 06:01:00,
2013-04-24 23:11:00,73.0,39.0,29.77,ENE,68,1.0,2.0,29,0.00,,,0.00,,2013-04-25 06:11:00,
2013-04-24 23:22:00,73.0,42.0,29.77,ESE,113,3.0,6.0,33,0.00,,,0.00,,2013-04-25 06:22:00,
2013-04-24 23:31:00,73.0,43.0,29.77,East,90,3.0,6.0,34,0.00,,,0.00,,2013-04-25 06:31:00,
2013-04-24 23:41:00,73.0,43.0,29.77,East,90,3.0,6.0,34,0.00,,,0.00,,2013-04-25 06:41:00,
2013-04-24 23:52:00,72.0,44.0,29.77,ESE,113,3.0,6.0,37,0.00,,,0.00,,2013-04-25 06:52:00,